C/2022 E3 ( ZTF )

Japanese version
Home page
Updated on November 26, 2022

---------------------------------------------------------------------

* Profile

Discovery Date March 2, 2022
Magnitude 17.2 mag
Discoverer Zwicky Transient Facility (ZTF)

* Pictures

* Orbital Elements

Epoch 2022 Aug. 9.0 TT = JDT 2459800.5
T 2023 Jan. 12.78722 TT                                 Rudenko
q   1.1122566            (2000.0)            P               Q
z  -0.0002454      Peri.  145.81470     -0.60062713     -0.07339545
 +/-0.0000010      Node   302.55388     +0.33753125     +0.87941592
e   1.0002729      Incl.  109.16858     +0.72478943     -0.47036235
>From 4443 observations 2021 July 10-2022 Nov. 4, mean residual 0".5.

* Finding Charts

* Magnitudes Graph

        m1 = -2.0 + 5 log d + 25   log r  [    ,-288]  (             - 2022 Mar. 30)
        m1 =  7.0 + 5 log d + 10.0 log r  [-288,    ]  (2022 Mar. 30 -             )

---------------------------------------------------------------------

The orbital elements are published on M.P.E.C. 2022-V95.
The charts are made with StellaNavigator Ver.10 (AstroArts).
The magnitudes graphs are made with Comet for Windows.

---------------------------------------------------------------------

Copyright(C) Seiichi Yoshida (comet@aerith.net). All rights reserved.